Flag for Germany Weather past 2 weeks in Magdeburg, Saxony-Anhalt, Germany

Now
41 °F

Fog.


Feels Like: 41 °F
Forecast: 44 / 52 °F
Wind: 2 mph from Northwest

Location: Magdeburg

Current Time: Mar 28, 2015 at 6:27:09 AM

Latest Report: Mar 28, 2015 at 6:00 AM


Visibility: 4 mi

Pressure: 30.18 "Hg

Humidity: 87%

Dew point: 37 °F

Location of MagdeburgLocation

Historic Weather in Magdeburg — Graph

°F

Magdeburg temperature yesterday

Maximum temperature yesterday: 50 °F (at 11:00 AM)
Minimum temperature yesterday: 41 °F (at 2:00 AM)
Average temperature yesterday: 45 °F

Past Weeks' High & Low Weather Summary

 TemperatureHumidityPressure
High61 °F (Mar 25, 5:00 PM)96% (Mar 21, 3:00 AM)30.43 "Hg (Mar 21, 3:00 AM)
Low27 °F (Mar 23, 5:00 AM)29% (Mar 19, 5:00 PM)29.64 "Hg (Mar 26, 12:00 AM)
Average43 °F72%30.16 "Hg
* Reported Mar 13 5:00 AM — Mar 28 5:00 AM, Magdeburg, Weather by CustomWeather, © 2015

Note: Actual official high and low records may vary slightly from our data, if they occured in-between our weather recording intervals... More about our weather records

Advertising

Magdeburg weather history for previous 24 hours

 ConditionsComfort  
Time TempWeatherWind HumidityBarometerVisibility
5:00 AM
Sat, Mar 28
41 °FFog.2 mph85%30.18 "Hg4 mi
3:00 AM42 °FOvercast.3 mph81%30.16 "Hg5 mi
2:00 AM42 °FFog.5 mph82%30.16 "Hg4 mi
1:00 AM42 °FFog.5 mph83%30.14 "Hg4 mi
12:00 AM42 °FOvercast.6 mph84%30.13 "Hg6 mi
11:00 PM
Fri, Mar 27
43 °FOvercast.6 mph84%30.11 "Hg6 mi
10:00 PM44 °FOvercast.5 mph83%30.09 "Hg7 mi
9:00 PM44 °FOvercast.5 mph85%30.07 "Hg7 mi
8:00 PM43 °FOvercast.6 mph87%30.04 "Hg7 mi
7:00 PM45 °FOvercast.6 mph77%30.02 "Hg14 mi
6:00 PM44 °FLight rain. Overcast.6 mph79%30.00 "Hg16 mi
5:00 PM46 °FLight rain. Overcast.6 mph73%29.98 "Hg19 mi
3:00 PM48 °FOvercast.6 mph60%29.94 "Hg25 mi
2:00 PM49 °FOvercast.7 mph61%29.93 "Hg19 mi
1:00 PM48 °FOvercast.8 mph61%29.91 "Hg16 mi
12:00 PM50 °FPartly sunny.7 mph57%29.90 "Hg19 mi
11:00 AM50 °FOvercast.7 mph52%29.89 "Hg22 mi
9:00 AM47 °FPartly sunny.5 mph72%29.86 "Hg11 mi
8:00 AM43 °FOvercast.3 mph80%29.85 "Hg7 mi
7:00 AM42 °FOvercast.3 mph81%29.83 "Hg9 mi
6:00 AM42 °FOvercast.2 mph82%29.82 "Hg10 mi
Weather by CustomWeather, © 2015

See weather overviewHow to use our weather pages